Location: Newark
(12.4436°N, 0.6167°W)
Time: 20:54:08
(UTC+00:00)

Courier 1B - Visible Passes

Search period start: 13 December 2019 00:00
Search period end: 23 December 2019 00:00
Orbit: 963 x 1209 km, 28.3° (Epoch: 12 December)

Date Brightness Start Highest point End Pass type
(mag) Time Alt. Az. Time Alt. Az. Time Alt. Az.
13 Dec 8.4 03:47:54 47° S 03:47:54 47° S 03:54:17 10° SE visible
13 Dec 9.8 05:37:53 10° WSW 05:41:17 13° SSW 05:44:37 10° S visible
13 Dec 8.4 19:05:27 10° W 19:11:50 40° NNW 19:14:40 29° NNE visible
14 Dec 9.5 02:57:32 27° SE 02:57:32 27° SE 03:00:41 10° SE visible
14 Dec 9.4 04:44:26 16° WSW 04:47:18 20° SSW 04:52:31 10° SSE visible
14 Dec 8.2 18:11:22 10° W 18:17:52 50° NNW 18:24:17 12° NE visible
14 Dec 9.3 20:07:17 10° WNW 20:11:11 23° NNW 20:11:11 23° NNW visible
15 Dec 9.1 03:54:03 28° SSW 03:54:03 28° SSW 03:59:40 10° SSE visible
15 Dec 8.8 19:12:59 10° WNW 19:18:46 28° NNW 19:20:48 25° NNE visible
16 Dec 9.7 03:03:38 22° SSE 03:03:38 22° SSE 03:06:28 10° SE visible
16 Dec 8.7 18:18:44 10° W 18:24:40 33° NNW 18:30:24 12° NE visible
16 Dec 9.6 20:14:51 10° NW 20:17:18 17° NNW 20:17:18 17° NNW visible
17 Dec 9.7 04:00:04 15° SSW 04:00:04 15° SSW 04:03:58 10° S visible
17 Dec 9.0 19:20:39 10° NW 19:25:51 22° N 19:26:54 22° N visible
18 Dec 10.0 03:09:35 15° S 03:09:35 15° S 03:11:28 10° SSE visible
18 Dec 9.0 18:26:22 10° WNW 18:31:40 24° N 18:36:30 12° NE visible
18 Dec 9.8 20:22:04 10° NW 20:23:24 14° NW 20:23:24 14° NW visible
19 Dec 9.1 19:28:06 10° NW 19:33:00 21° N 19:33:00 21° N visible
20 Dec 9.1 18:34:00 10° NW 18:38:49 20° N 18:42:39 13° NE visible
20 Dec 9.9 20:28:47 10° NW 20:29:32 13° NW 20:29:32 13° NW visible
21 Dec 9.1 19:35:05 10° NW 19:39:12 21° N 19:39:12 21° N visible
22 Dec 9.1 18:41:16 10° NW 18:46:01 20° N 18:48:54 16° NE visible
22 Dec 9.9 20:35:10 10° NW 20:35:48 13° NW 20:35:48 13° NW visible
